Location: Azul
(36.7830°S, 59.8500°W)
Time: 18:40:37
(UTC-03:00)

ZACube-1 - Pass Details

Date: 25 October 2021
Orbit: 584 x 664 km, 97.6° (Epoch: 07 December)

Event Time Altitude Azimuth Distance (km) Brightness Sun altitude
Rises 04:02:40 0° 34° (NE) 2,916 ? -22.3°
Reaches altitude 10° 04:04:58 10° 43° (NE) 2,030 ? -21.9°
Maximum altitude 04:09:00 35° 109° (ESE) 1,056 ? -21.2°
Drops below altitude 10° 04:13:09 10° 173° (S) 2,095 ? -20.5°
Sets 04:15:33 0° 182° (S) 3,024 ? -20.1°
